[[{"header":{"parameterUnit":"m.s-1","parameterCategory":1,"la1":30.2991,"la2":30.254,"lo1":-89.0895,"lo2":-89.0444,"dy":0.0017,"dx":0.0017,"nx":28,"ny":28,"refTime":"2024-04-24T03:00:00:Z","depth":0,"parameterNumber":2,"parameterNumberName":"U-component_of_WINDS"},"data":[0,0,0,0,0,0,0,0,0,0,0,0,0,0,0,0,0,0,0,0,0,0,0,0,0,0,0,0,0,0,0,0,0,0,0,0,0,0,0,0,0,0,0,0,0,0,0,0,0,0,0,0,0,0,0,0,0,0,-1.0176,-1.0175,0,-1.0098,-1.0097,-1.0096,-1.0035,-1.0034,-1.0034,-1.0033,-0.9952,-0.9951,-0.9949,0,0,0,0,0,0,0,0,0,0,0,0,0,-1.0272,-1.0271,-1.0176,-1.0175,-1.0174,-1.0098,-1.0097,-1.0096,-1.0035,-1.0034,-1.0034,-1.0033,-0.9953,-0.9951,-0.9949,0,0,0,0,0,0,0,0,0,0,0,0,0,-1.0216,-1.0271,-1.0176,-1.0135,-1.013,-1.0098,-1.0097,-1.0096,-1.0035,-1.0034,-1.0033,-1.0033,-0.9953,-0.9951,-0.9949,-0.9951,0,0,-0.9941,-0.994,0,0,0,0,0,0,0,0,-1.0219,-1.0213,-1.0142,-1.0137,-1.0132,-1.0075,-1.0101,-1.0047,-1.0035,-1.0071,-1.0033,-1.0032,-0.9994,-0.9988,-0.9975,-0.9948,-0.9944,-0.9941,-0.994,-0.9939,-0.9938,0,0,0,0,0,0,0,-1.0223,-1.0216,-1.0145,-1.0141,-1.0135,-1.012,-1.0111,-1.0091,-1.0038,-1.0068,-1.0063,-1.0055,-0.9991,-0.9978,-0.9973,-0.9943,-0.9941,-0.9939,-0.9938,-0.9937,-0.9914,-0.9915,0,0,0,0,0,0,-1.0234,-1.0219,-1.0147,-1.0143,-1.0175,-1.0119,-1.0109,-1.0094,-1.0038,-1.0029,-1.0056,-1.0052,-0.9982,-0.9976,-0.997,-0.997,-0.9939,-0.9936,-0.9935,-0.9914,-0.9915,-0.9916,0,0,0,0,0,0,-1.0236,-1.0228,-1.0151,-1.018,-1.0169,-1.0118,-1.0103,-1.0093,-1.008,-1.0029,-1.002,-1.0052,-0.9981,-0.9973,-0.9957,-0.9966,-0.9935,-0.9933,-0.9913,-0.9914,-0.9915,-0.997,0,0,0,0,0,0,-1.0239,-1.0229,-1.023,-1.018,-1.0167,-1.0139,-1.0103,-1.0092,-1.0076,-1.0071,-1.0023,-1.0014,-0.998,-0.9961,-0.9954,-0.9962,-0.9931,-0.9912,-0.9913,-0.9915,-0.9967,-0.9973,-0.9978,0,0,0,0,0,-1.0243,-1.0248,-1.023,-1.0222,-1.0167,-1.014,-1.0132,-1.0093,-1.0077,-1.0077,-1.0045,-1.0016,-0.9966,-0.996,-0.9952,-0.9959,-0.9911,-0.9913,-0.9915,-0.9965,-0.9972,-0.9978,0,0,0,0,0,0,-1.0299,-1.0241,-1.022,-1.0209,-1.018,-1.013,-1.0128,-1.0102,-1.0077,-1.0073,-1.0025,-1.0015,-1.0003,-0.9979,-0.9973,-0.9959,-0.9935,-0.9935,-0.9975,-0.9982,-0.9987,-0.9993,-0.9929,0,0,0,0,0,-1.0311,-1.0294,-1.0243,-1.0239,-1.0225,-1.018,-1.0166,-1.0139,-1.0106,-1.0093,-1.006,-1.0029,-1.0007,-0.9993,-0.9969,-0.9963,-0.9952,-0.9965,-0.997,-0.9975,-0.9976,-0.9972,-0.9977,-0.9922,-0.9922,-0.9922,0,0,-1.0334,-1.03,-1.0292,-1.0249,-1.0223,-1.0207,-1.0169,-1.0153,-1.014,-1.0091,-1.0073,-1.0048,-1.001,-1.0,-0.9993,-0.9979,-0.9989,-0.9977,-0.9982,-0.998,-0.9974,-0.9979,-0.9984,-0.9923,-0.9923,-0.9923,0,0,-1.0367,-1.034,-1.0333,-1.0308,-1.027,-1.0239,-1.0238,-1.0192,-1.0173,-1.0155,-1.0117,-1.0101,-1.0064,-1.0039,-1.0021,-1.0047,-1.0019,-1.004,-1.0069,-1.0065,-1.007,-1.0073,-1.0083,-1.0087,-1.0042,-1.0042,-1.0042,0,-1.0401,-1.0374,-1.0333,-1.0319,-1.0302,-1.0257,-1.025,-1.0228,-1.0183,-1.0172,-1.0158,-1.011,-1.0082,-1.0065,-1.0071,-1.0058,-1.0055,-1.0046,-1.0072,-1.0075,-1.0078,-1.0087,-1.009,-1.0045,-1.0044,-1.0044,-1.0044,0,-1.0418,-1.04,-1.04,-1.0359,-1.0341,-1.0331,-1.0288,-1.0275,-1.025,-1.0221,-1.0204,-1.0168,-1.0137,-1.0131,-1.0105,-1.0111,-1.0103,-1.0081,-1.0056,-1.0087,-1.0094,-1.0097,-1.0049,-1.0048,-1.0047,-1.0046,0,0,-1.0484,-1.0421,-1.0422,-1.0403,-1.0358,-1.0343,-1.0331,-1.0301,-1.0291,-1.0263,-1.0251,-1.0221,-1.0201,-1.0181,-1.0152,-1.0149,-1.0172,-1.0127,-1.0125,-1.0137,-1.0176,-1.0193,-1.0198,-1.0153,-1.0154,-1.0154,-1.0179,0,-1.0511,-1.0487,-1.045,-1.0439,-1.0422,-1.0379,-1.0369,-1.034,-1.0313,-1.0295,-1.0265,-1.0245,-1.0219,-1.0207,-1.0202,-1.017,-1.0179,-1.0168,-1.0143,-1.0142,-1.0154,-1.0201,-1.0219,-1.0244,-1.0182,-1.0182,-1.0182,0,-1.0539,-1.0513,-1.0501,-1.0457,-1.0449,-1.044,-1.041,-1.0393,-1.036,-1.034,-1.0319,-1.0288,-1.0273,-1.025,-1.0229,-1.0223,-1.021,-1.0193,-1.0193,-1.0189,-1.0164,-1.0199,-1.0251,-1.0255,-1.0186,-1.0186,-1.0186,0,-1.059,-1.0552,-1.0539,-1.0524,-1.0473,-1.0468,-1.0447,-1.0412,-1.0397,-1.037,-1.036,-1.0332,-1.0317,-1.0296,-1.0259,-1.0245,-1.0242,-1.0216,-1.0226,-1.0227,-1.0227,-1.0228,-1.0279,-1.0219,-1.0219,-1.0219,-1.0219,0,-1.0624,-1.0618,-1.0562,-1.0554,-1.0546,-1.0503,-1.0496,-1.0471,-1.0441,-1.0427,-1.0388,-1.0377,-1.0328,-1.031,-1.0281,-1.0268,-1.0262,-1.0246,-1.0238,-1.0249,-1.0252,-1.0241,-1.0238,-1.022,-1.022,-1.0219,-1.0219,0,-1.0679,-1.0641,-1.0625,-1.0578,-1.0566,-1.0562,-1.0522,-1.0513,-1.0484,-1.0468,-1.0462,-1.0416,-1.0394,-1.0354,-1.032,-1.0301,-1.0294,-1.0281,-1.0306,-1.0301,-1.0314,-1.0313,-1.0359,-1.0364,-1.0302,-1.0302,-1.0303,0,-1.0704,-1.0698,-1.0651,-1.0639,-1.0619,-1.0601,-1.0585,-1.0543,-1.0528,-1.049,-1.0486,-1.0461,-1.0438,-1.0404,-1.0368,-1.0342,-1.0328,-1.0346,-1.0324,-1.0336,-1.0329,-1.033,-1.0329,-1.0351,-1.0352,-1.0353,-1.0353,0,-1.0751,-1.0733,-1.0712,-1.0685,-1.0667,-1.0644,-1.0618,-1.0611,-1.0563,-1.0548,-1.0525,-1.0508,-1.0473,-1.0449,-1.0418,-1.0395,-1.0367,-1.0361,-1.0362,-1.0373,-1.0388,-1.0381,-1.032,-1.036,-1.0359,-1.0359,-1.0358,-1.0358,-1.0792,-1.0785,-1.0751,-1.0729,-1.0706,-1.0683,-1.0672,-1.0642,-1.0622,-1.0592,-1.0568,-1.0547,-1.0513,-1.0469,-1.0448,-1.0431,-1.0418,-1.0419,-1.0419,-1.042,-1.0425,-1.0391,-1.0425,-1.0425,-1.0425,-1.0424,-1.0424,0,-1.0838,-1.0814,-1.0794,-1.076,-1.0743,-1.0718,-1.0688,-1.0676,-1.0658,-1.0629,-1.0608,-1.0582,-1.0558,-1.052,-1.0493,-1.0487,-1.0473,-1.0481,-1.0481,-1.0477,-1.0438,-1.044,-1.0493,-1.0493,-1.0493,-1.0493,-1.0493,-1.0493,-1.086,-1.0848,-1.0825,-1.0801,-1.0777,-1.0756,-1.0741,-1.072,-1.0697,-1.067,-1.065,-1.0626,-1.0594,-1.0564,-1.0541,-1.0531,-1.0523,-1.0535,-1.0521,-1.0486,-1.0479,-1.0473,-1.0475,-1.0534,-1.0534,-1.0561,-1.0561,-1.0561]},{"header":{"parameterUnit":"m.s-1","parameterCategory":1,"la1":30.2991,"la2":30.254,"lo1":-89.0895,"lo2":-89.0444,"dy":0.0017,"dx":0.0017,"nx":28,"ny":28,"refTime":"2024-04-24T03:00:00:Z","depth":0,"parameterNumber":3,"parameterNumberName":"V-component_of_WINDS"},"data":[0,0,0,0,0,0,0,0,0,0,0,0,0,0,0,0,0,0,0,0,0,0,0,0,0,0,0,0,0,0,0,0,0,0,0,0,0,0,0,0,0,0,0,0,0,0,0,0,0,0,0,0,0,0,0,0,0,0,4.3428,4.3427,0,4.3396,4.3395,4.3395,4.3292,4.3289,4.3287,4.3285,4.3253,4.3255,4.3256,0,0,0,0,0,0,0,0,0,0,0,0,0,4.3401,4.3402,4.3428,4.3427,4.3427,4.3396,4.3395,4.3395,4.3292,4.3289,4.3286,4.3284,4.3253,4.3254,4.3256,0,0,0,0,0,0,0,0,0,0,0,0,0,4.3395,4.3402,4.3428,4.3372,4.3367,4.3396,4.3395,4.3395,4.3293,4.3289,4.3286,4.3282,4.3252,4.3254,4.3256,4.3337,0,0,4.3262,4.3263,0,0,0,0,0,0,0,0,4.3396,4.3396,4.3381,4.3376,4.337,4.3344,4.3374,4.3375,4.3293,4.3321,4.3285,4.3281,4.3286,4.3285,4.3287,4.3336,4.3334,4.3262,4.3264,4.3264,4.3265,0,0,0,0,0,0,0,4.3396,4.3397,4.3415,4.338,4.3374,4.3349,4.3344,4.3374,4.3323,4.3318,4.3311,4.3308,4.3283,4.3285,4.3285,4.3334,4.3262,4.3264,4.3265,4.3266,4.3446,4.3449,0,0,0,0,0,0,4.3404,4.3398,4.3416,4.3414,4.3374,4.3352,4.3347,4.3356,4.3323,4.3314,4.3311,4.3303,4.3284,4.3283,4.3284,4.3375,4.3264,4.3266,4.3267,4.3442,4.3447,4.3451,0,0,0,0,0,0,4.3404,4.3407,4.3417,4.3404,4.3403,4.3356,4.3367,4.3357,4.3359,4.3317,4.3308,4.3323,4.3281,4.3281,4.3324,4.3373,4.3267,4.3269,4.3438,4.3444,4.3449,4.356,0,0,0,0,0,0,4.3404,4.3407,4.3438,4.3405,4.3404,4.3459,4.337,4.3359,4.3363,4.3352,4.3326,4.3318,4.3278,4.3322,4.3326,4.3374,4.327,4.3434,4.3441,4.3447,4.3552,4.3569,4.3583,0,0,0,0,0,4.3403,4.3471,4.344,4.3443,4.3441,4.3462,4.3461,4.3413,4.3367,4.3397,4.337,4.3319,4.3367,4.3327,4.3331,4.338,4.343,4.3439,4.3446,4.3545,4.3565,4.3582,0,0,0,0,0,0,4.3512,4.3466,4.3431,4.349,4.3481,4.3444,4.3481,4.3437,4.344,4.3431,4.3371,4.3366,4.3418,4.3403,4.336,4.3456,4.339,4.3399,4.3463,4.3483,4.3498,4.35,4.3272,0,0,0,0,0,4.3542,4.3562,4.3521,4.3578,4.3575,4.3529,4.3536,4.35,4.3487,4.3483,4.3459,4.3449,4.3461,4.3471,4.3481,4.3549,4.3541,4.3584,4.36,4.3613,4.3622,4.3655,4.3674,4.3477,4.3477,4.3477,0,0,4.3606,4.3584,4.36,4.3599,4.3587,4.3609,4.3526,4.3553,4.3569,4.3487,4.3526,4.3508,4.3493,4.3549,4.3572,4.3538,4.3674,4.3623,4.3634,4.3636,4.3666,4.3684,4.3701,4.3483,4.3482,4.3481,0,0,4.3734,4.3719,4.3764,4.3753,4.3736,4.3704,4.3715,4.3685,4.367,4.3708,4.3647,4.3664,4.3688,4.3679,4.3678,4.3801,4.3754,4.3805,4.3887,4.392,4.3936,4.3949,4.3992,4.4008,4.3814,4.3815,4.3815,0,4.3816,4.3846,4.3792,4.3823,4.3824,4.375,4.3794,4.3787,4.3774,4.3776,4.3738,4.3765,4.375,4.3802,4.3832,4.3834,4.3844,4.3808,4.3938,4.3951,4.3962,4.4003,4.4019,4.3821,4.382,4.3819,4.3819,0,4.3946,4.3968,4.4006,4.3994,4.4,4.4037,4.3989,4.4001,4.3964,4.3937,4.3976,4.3955,4.3958,4.3968,4.3933,4.4015,4.3994,4.3948,4.3881,4.3988,4.4025,4.404,4.383,4.3828,4.3826,4.3824,0,0,4.4142,4.4099,4.4114,4.4107,4.4082,4.4097,4.4131,4.4133,4.4144,4.4138,4.4164,4.4185,4.4141,4.414,4.4103,4.4133,4.423,4.4082,4.4081,4.411,4.4318,4.4352,4.4371,4.4199,4.4201,4.4203,4.4319,0,4.4262,4.4316,4.4269,4.4333,4.4351,4.4281,4.431,4.4298,4.4273,4.4286,4.4258,4.4274,4.4215,4.4214,4.424,4.4213,4.4271,4.4204,4.4222,4.4224,4.4228,4.439,4.4427,4.4537,4.4333,4.4335,4.4337,0,4.4409,4.4408,4.4473,4.4442,4.4448,4.4476,4.4473,4.4486,4.447,4.445,4.4448,4.4402,4.4433,4.4368,4.4409,4.4364,4.4369,4.4356,4.4359,4.4359,4.4287,4.4394,4.4571,4.4587,4.4359,4.4357,4.4356,0,4.4544,4.4559,4.4599,4.4596,4.4561,4.4581,4.4568,4.4549,4.4552,4.455,4.4552,4.4555,4.4556,4.4558,4.4514,4.4471,4.4561,4.4492,4.4544,4.4546,4.4566,4.4566,4.4746,4.4571,4.4571,4.457,4.457,0,4.4683,4.4725,4.4659,4.4684,4.4729,4.4674,4.472,4.47,4.4683,4.4702,4.4642,4.4662,4.4603,4.4616,4.4582,4.4621,4.4622,4.4606,4.4597,4.4611,4.4613,4.4613,4.4604,4.4575,4.4574,4.4573,4.4572,0,4.4841,4.4799,4.4838,4.4801,4.4793,4.4828,4.4796,4.4817,4.4788,4.4814,4.4816,4.4771,4.4783,4.474,4.4746,4.4723,4.4779,4.4757,4.4784,4.4777,4.4832,4.4827,4.5019,4.5041,4.4853,4.4854,4.4856,0,4.4932,4.4963,4.4929,4.4937,4.4926,4.4941,4.4944,4.4891,4.4896,4.488,4.4903,4.4911,4.4914,4.4937,4.4905,4.4909,4.4886,4.4953,4.4886,4.4899,4.4886,4.4884,4.4886,4.4966,4.4969,4.4971,4.4972,0,4.5098,4.5075,4.5081,4.508,4.5085,4.5082,4.5075,4.5086,4.5028,4.5038,4.5049,4.5051,4.5056,4.5064,4.5061,4.5047,4.5,4.4993,4.5005,4.5021,4.5035,4.5027,4.4821,4.4989,4.4987,4.4986,4.4985,4.4985,4.5224,4.5248,4.5227,4.5236,4.5224,4.5219,4.5237,4.5209,4.5217,4.5217,4.5185,4.5203,4.5185,4.5175,4.5166,4.5179,4.5148,4.5166,4.517,4.5176,4.5184,4.5033,4.5178,4.5178,4.5177,4.5177,4.5176,0,4.5386,4.5368,4.5377,4.5368,4.5375,4.5329,4.5319,4.5328,4.5344,4.5331,4.5335,4.5347,4.5354,4.5322,4.5325,4.5341,4.532,4.5344,4.5342,4.5339,4.5213,4.5201,4.5361,4.5361,4.5361,4.5361,4.5361,4.5361,4.5471,4.5507,4.5482,4.5512,4.5494,4.551,4.5508,4.5502,4.5491,4.5508,4.5513,4.5492,4.5471,4.5471,4.5475,4.5466,4.5469,4.55,4.5483,4.5366,4.5348,4.5331,4.532,4.5502,4.5502,4.5608,4.5609,4.561]}]]